Date,TemperatureHighF,TemperatureAvgF,TemperatureLowF,DewpointHighF,DewpointAvgF,DewpointLowF,HumidityHigh,HumidityAvg,HumidityLow,PressureMaxIn,PressureMinIn,WindSpeedMaxMPH,WindSpeedAvgMPH,GustSpeedMaxMPH,PrecipitationSumIn
2013-1-1,49,46,42,47,42,38,94,85,70,30.07,29.65,7,3,18,0.30
2013-1-2,48,45,41,43,40,37,89,85,79,30.45,30.07,5,1,10,0.02
2013-1-3,51,49,46,50,48,43,96,95,90,30.70,30.44,4,2,12,0.05
2013-1-4,50,50,49,48,47,46,93,89,86,30.70,30.62,6,2,14,0.00
2013-1-5,50,48,46,47,46,44,96,91,86,30.62,30.57,5,2,10,0.00
2013-1-6,47,46,46,44,44,43,93,91,86,30.58,30.45,3,0,9,0.00
2013-1-7,47,46,45,43,42,41,87,86,82,30.45,30.35,2,0,6,0.00
2013-1-8,41,40,40,38,38,37,90,90,88,30.35,30.32,1,0,5,0.00
2013-1-9,43,41,39,42,38,36,94,91,86,30.31,30.09,3,0,7,0.10
2013-1-10,48,45,43,46,43,41,95,94,91,30.09,29.87,5,1,10,0.05
2013-1-11,46,44,42,44,40,39,92,87,82,30.06,29.91,3,0,9,0.03
2013-1-12,42,41,40,40,39,37,93,91,87,30.03,29.83,2,0,6,0.07
2013-1-13,42,38,32,39,36,28,93,91,88,30.01,29.85,7,2,16,0.04
2013-1-14,35,31,28,33,27,24,93,85,70,30.03,29.67,8,2,16,0.00
2013-1-15,37,36,34,35,33,29,94,90,79,29.84,29.61,10,3,22,0.22
2013-1-16,35,30,28,32,25,21,90,81,64,29.95,29.80,5,1,11,0.01
2013-1-17,33,28,24,25,23,21,89,82,70,30.09,29.95,2,0,7,0.01
2013-1-18,32,29,26,28,25,22,92,83,77,29.84,29.38,3,1,7,0.00
2013-1-19,32,31,29,30,28,27,93,91,88,29.38,29.24,5,1,18,0.00
2013-1-20,34,29,26,32,27,25,95,93,91,29.39,29.22,7,2,15,0.00
2013-1-21,36,34,33,35,33,32,97,96,95,29.56,29.32,4,1,8,0.24
2013-1-22,38,35,33,36,34,32,95,95,94,29.62,29.54,4,1,8,0.23
2013-1-23,40,39,38,38,37,34,94,91,86,29.75,29.62,1,0,6,0.00
2013-1-24,38,34,27,35,31,24,93,90,86,30.09,29.71,6,2,15,0.01
2013-1-25,30,28,26,28,25,23,92,86,81,30.12,29.82,5,1,10,0.00
2013-1-26,41,34,29,39,31,26,92,89,86,29.99,29.75,4,1,8,0.00
2013-1-27,48,43,37,45,39,35,94,87,70,29.93,29.64,10,3,21,0.16
2013-1-28,49,45,41,46,40,36,89,81,71,30.03,29.79,9,3,22,0.00
2013-1-29,53,51,49,52,49,46,94,92,87,29.98,29.90,14,8,27,0.09
2013-1-30,56,53,49,54,48,40,95,83,63,30.20,29.85,11,6,23,0.19
2013-1-31,52,48,43,47,43,39,92,83,74,30.23,30.07,13,5,27,0.02
2013-2-1,50,48,43,48,45,38,95,90,81,30.06,29.40,10,4,25,0.23
2013-2-2,43,40,37,39,36,32,90,85,70,30.17,29.52,13,5,28,0.05
2013-2-3,44,40,36,42,35,31,93,82,66,30.24,30.07,8,4,17,0.13
2013-2-4,53,48,44,49,44,38,95,85,69,30.06,30.00,8,4,19,0.03
2013-2-5,47,42,37,41,36,30,88,79,65,30.00,29.55,14,6,25,0.11
2013-2-6,44,40,38,39,35,31,91,82,61,29.88,29.40,13,6,29,0.20
2013-2-7,42,39,36,35,33,30,91,79,63,30.07,29.89,9,4,26,0.04
2013-2-8,41,38,35,35,33,32,91,84,71,30.11,29.95,7,2,21,0.06
2013-2-9,39,36,34,34,32,30,93,87,78,30.14,30.01,2,0,9,0.14
2013-2-10,37,35,32,36,32,29,94,88,84,30.00,29.29,3,1,9,0.21
2013-2-11,47,43,38,41,39,36,95,87,70,29.62,29.28,5,2,17,0.06
2013-2-12,40,36,33,36,33,28,93,86,76,30.06,29.62,5,2,14,0.01
2013-2-13,37,34,31,29,25,23,83,72,61,30.26,30.07,3,0,9,0.00
2013-2-14,44,37,32,43,33,24,96,88,73,30.23,29.93,4,2,9,0.21
2013-2-15,50,46,43,42,40,37,93,83,62,30.22,29.99,5,2,14,0.00
2013-2-16,50,44,39,40,37,34,89,79,57,30.25,30.20,4,0,7,0.00
2013-2-17,44,39,36,39,35,33,94,86,74,30.20,30.08,4,1,10,0.00
2013-2-18,41,37,35,36,33,31,88,83,76,30.10,30.04,3,0,7,0.00
2013-2-19,49,41,36,35,33,31,84,73,53,30.10,30.01,2,0,7,0.00
2013-2-20,46,40,35,36,33,26,84,74,57,30.13,30.04,5,1,14,0.00
2013-2-21,37,34,31,26,23,20,79,64,53,30.13,30.00,6,1,17,0.00
2013-2-22,34,31,29,25,22,19,82,70,56,30.00,29.91,6,2,21,0.00
2013-2-23,30,29,26,26,22,20,86,76,66,30.04,29.91,7,3,17,0.00
2013-2-24,33,31,29,31,28,25,91,87,81,30.09,30.01,7,3,16,0.00
2013-2-25,35,34,33,33,32,31,95,93,91,30.20,30.07,5,2,14,0.19
2013-2-26,41,37,34,34,33,32,95,87,72,30.40,30.19,4,1,13,0.03
2013-2-27,39,38,35,37,35,33,93,92,87,30.41,30.35,4,2,15,0.05
2013-2-28,37,36,36,35,34,33,93,89,85,30.35,30.25,5,1,11,0.00
2013-3-1,40,38,37,35,34,32,89,85,80,30.28,30.23,4,2,14,0.00
2013-3-2,39,37,36,34,30,29,80,76,71,30.28,30.22,4,1,11,0.00
2013-3-3,46,39,33,36,32,28,84,75,64,30.23,30.04,3,1,10,0.00
2013-3-4,57,45,35,43,36,31,85,71,54,30.04,29.78,3,1,8,0.00
2013-3-5,62,53,45,41,38,35,70,58,46,29.78,29.59,4,1,8,0.00
2013-3-6,61,56,51,48,42,39,79,61,51,29.59,29.47,1,0,4,0.00
2013-3-7,56,54,51,51,50,48,92,85,80,29.47,29.37,2,0,8,0.02
2013-3-8,54,53,51,52,50,48,94,90,80,29.54,29.33,6,1,14,0.19
2013-3-16,43,43,43,40,40,39,90,89,87,29.55,29.52,2,1,8,0.13
2013-3-17,47,43,41,42,39,34,92,84,73,29.52,29.25,10,3,17,0.09
2013-3-18,46,41,37,40,37,34,90,84,75,29.39,29.23,6,2,17,0.12
2013-3-19,49,44,40,41,39,36,92,83,63,29.51,29.39,8,3,17,0.13
2013-3-20,47,44,42,41,39,37,91,82,70,29.96,29.47,9,3,22,0.03
2013-3-21,50,44,39,42,39,35,89,81,73,30.02,29.91,3,1,9,0.00
2013-3-22,57,49,42,41,38,36,80,67,52,29.91,29.62,5,2,11,0.00
2013-3-23,51,47,44,42,38,37,80,72,65,29.72,29.62,1,0,8,0.00
2013-3-24,45,42,40,38,36,30,89,79,67,29.76,29.69,4,1,14,0.00
2013-3-25,48,42,38,32,29,24,71,59,49,29.80,29.73,5,2,14,0.00
2013-3-26,44,40,36,28,27,26,68,57,51,29.79,29.75,2,1,9,0.00
2013-3-27,44,40,36,28,26,25,67,58,49,29.77,29.71,5,1,11,0.00
2013-3-28,43,40,36,32,29,27,76,66,57,29.84,29.74,5,2,14,0.00
2013-3-29,44,38,32,28,27,24,79,65,50,29.83,29.67,4,1,11,0.00
2013-3-30,43,37,33,29,27,25,72,65,55,29.85,29.65,7,2,18,0.00
2013-3-31,43,36,31,30,28,25,88,71,52,29.90,29.79,4,2,11,0.00
2013-4-1,49,40,33,29,27,25,77,60,44,29.78,29.63,4,1,17,0.00
2013-4-2,51,42,34,28,26,24,67,53,38,29.84,29.66,7,2,16,0.00
2013-4-3,49,42,36,33,28,25,68,58,44,29.86,29.78,7,2,15,0.00
2013-4-4,48,42,36,37,32,29,83,68,52,29.77,29.64,8,3,21,0.03
2013-4-5,48,43,39,34,33,31,80,67,57,29.92,29.62,8,3,19,0.00
2013-4-6,46,41,38,34,33,31,82,71,62,30.21,29.92,6,3,16,0.00
2013-4-7,53,44,34,34,31,29,82,62,41,30.22,29.84,4,1,9,0.00
2013-4-8,51,48,44,40,35,31,74,61,52,29.83,29.58,3,1,9,0.00
2013-4-9,53,49,43,47,43,40,92,82,73,29.58,29.39,9,3,20,0.37
2013-4-10,55,50,48,50,45,41,93,82,62,29.77,29.55,10,5,19,0.21
2013-4-11,56,54,52,52,49,46,94,83,72,29.60,29.51,12,5,21,0.02
2013-4-12,59,52,50,48,45,42,87,80,56,29.86,29.58,13,6,24,0.19
2013-4-13,58,52,47,52,46,43,89,83,71,30.12,29.87,8,3,19,0.05
2013-4-14,78,66,55,52,50,49,88,60,36,30.13,29.99,6,2,13,0.01
2013-4-15,69,63,58,51,50,47,75,62,48,30.15,30.02,5,1,11,0.00
2013-4-16,67,61,56,53,48,42,71,61,50,30.18,30.08,9,4,17,0.00
2013-4-17,77,66,57,53,49,45,76,55,36,30.19,29.92,5,1,11,0.00
2013-4-18,69,60,53,54,43,35,76,56,37,30.20,29.91,11,6,19,0.00
2013-4-19,53,50,45,46,41,38,83,72,58,30.39,30.21,8,3,22,0.15
2013-4-20,57,49,41,42,37,33,86,65,41,30.41,30.26,10,4,20,0.00
2013-4-21,49,48,47,34,34,33,60,57,54,30.26,30.24,4,2,12,0.00
2013-4-24,75,71,68,51,50,49,55,47,42,30.26,30.23,2,0,6,0.00
2013-4-25,80,72,57,52,49,46,81,47,32,30.25,30.03,4,1,10,0.00
2013-4-26,71,58,46,52,47,40,92,70,44,30.03,29.83,12,3,24,0.02
2013-4-27,54,48,44,41,36,28,83,65,37,29.95,29.83,7,3,17,0.00
2013-4-28,54,48,41,40,36,33,85,65,48,30.04,29.96,7,2,15,0.00
2013-4-29,58,52,45,42,37,29,77,58,38,30.12,30.00,5,2,14,0.00
2013-4-30,51,47,45,38,35,33,74,64,55,30.14,30.09,6,3,15,0.00
2013-5-5,67,63,57,46,44,43,65,50,43,30.17,30.14,6,2,16,0.00
2013-5-6,67,59,50,52,48,46,86,70,51,30.17,30.04,6,1,12,0.09
2013-5-7,71,63,55,52,51,49,81,65,47,30.06,29.91,3,0,11,0.00
2013-5-8,70,62,56,60,55,50,94,77,61,29.91,29.79,8,2,16,0.15
2013-5-9,62,58,53,54,45,40,78,62,46,29.98,29.90,10,4,17,0.00
2013-5-10,58,55,50,48,46,40,78,71,57,30.07,29.94,9,4,16,0.00
2013-5-11,63,57,51,48,45,39,86,66,42,30.07,29.97,10,4,20,0.01
2013-5-12,60,54,47,47,41,36,82,63,42,30.11,29.99,10,4,20,0.00
2013-5-13,54,54,53,48,48,47,81,80,78,30.11,30.08,8,5,18,0.00
2013-5-14,60,56,51,49,44,39,80,62,52,29.89,29.53,7,3,16,0.00
2013-5-15,63,55,48,49,44,40,86,67,47,29.59,29.47,9,3,17,0.04
2013-5-16,54,53,52,48,47,43,85,80,68,29.58,29.48,1,0,6,0.14
2013-5-17,62,55,49,48,46,43,92,73,54,29.73,29.50,5,1,14,0.00
2013-5-18,60,52,47,47,45,44,92,77,59,29.77,29.68,4,1,13,0.00
2013-5-19,54,53,52,48,48,47,86,82,79,29.69,29.68,2,1,7,0.02
2013-5-20,52,51,51,50,50,50,95,95,95,29.83,29.81,2,1,6,0.66
2013-5-21,53,52,51,51,50,48,96,93,87,30.01,29.80,8,3,17,0.45
2013-5-22,60,55,48,49,45,42,92,71,56,30.06,29.99,8,3,15,0.02
2013-5-23,54,54,54,48,47,47,78,77,77,30.01,30.00,2,1,6,0.00
2013-5-24,48,45,42,42,40,38,88,83,74,29.88,29.79,6,2,13,0.26
2013-5-25,58,50,43,44,41,37,93,72,47,30.12,29.84,8,3,17,0.03
2013-5-26,61,54,46,45,42,38,88,66,47,30.12,30.00,9,3,21,0.00
2013-5-27,67,58,50,44,42,39,73,54,42,30.00,29.70,4,0,10,0.00
2013-5-28,60,56,53,52,47,42,89,74,56,29.70,29.52,7,2,16,0.16
2013-5-29,61,54,48,48,44,40,87,69,48,29.73,29.62,10,2,22,0.27
2013-5-30,59,54,50,53,50,44,94,87,74,29.85,29.69,5,2,12,0.57
2013-5-31,62,56,51,55,52,49,93,85,74,30.05,29.85,10,4,19,0.00
2013-6-1,68,60,53,54,51,48,92,74,53,30.21,30.03,8,4,18,0.00
2013-6-2,65,58,50,51,45,42,85,65,46,30.33,30.22,8,3,19,0.00
2013-6-3,64,56,47,47,44,43,89,68,48,30.37,30.26,8,4,19,0.00
2013-6-4,68,57,48,48,46,43,89,67,44,30.28,30.08,7,3,19,0.00
2013-6-5,77,65,51,54,51,47,91,63,42,30.08,29.96,4,1,16,0.00
2013-6-6,83,70,57,60,55,52,85,61,41,30.02,29.95,5,1,14,0.00
2013-6-7,82,75,64,58,54,51,71,50,35,30.05,29.99,3,1,16,0.00
2013-6-8,79,70,59,62,57,51,84,65,50,30.02,29.83,6,3,19,0.02
2013-6-9,65,59,57,57,54,51,92,84,74,29.87,29.82,8,3,15,0.17
2013-6-10,68,59,52,54,52,49,90,78,60,29.98,29.87,5,2,13,0.00
2013-6-11,68,64,59,59,56,52,85,76,65,30.05,29.96,6,2,12,0.00
2013-6-12,70,65,62,63,60,58,88,83,73,30.06,30.01,8,3,17,0.00
2013-6-13,67,62,56,62,56,52,90,83,73,30.16,29.97,8,3,20,0.24
2013-6-14,71,62,54,52,49,43,86,63,46,30.18,29.95,3,1,8,0.00
2013-6-15,67,63,58,54,50,40,79,63,40,30.01,29.89,11,5,21,0.00
2013-6-16,78,66,57,55,50,47,73,56,35,30.01,29.87,4,1,12,0.00
2013-6-17,80,67,59,69,60,54,92,77,60,29.88,29.75,14,2,32,1.00
2013-6-19,68,67,67,64,63,63,89,88,86,29.92,29.91,0,0,3,1.08
2013-6-20,73,67,62,65,61,56,94,82,60,29.94,29.83,9,2,18,0.61
2013-6-21,69,62,59,59,56,54,93,81,63,30.03,29.86,10,3,17,0.09
2013-6-22,64,62,59,58,56,52,89,81,69,30.03,29.89,11,5,25,0.01
2013-6-23,62,59,56,53,51,50,79,75,68,30.00,29.92,12,8,25,0.01
2013-7-27,89,82,78,63,59,54,60,46,34,29.33,29.24,6,3,16,0.00
2013-7-28,80,77,75,69,66,64,75,70,61,29.34,29.29,6,2,17,0.00